DW7199 Weather Reports


time (UTC)temp
F
wind
direction
speed
knots
gust
knots
rain 1hr
in
rain 24hr
in
rain mn
in
humidity
%
barometer
mb
20260504234611 77 142 7.0 11.3 0.00 0.00 0.00 42 1008.4
20260504233104 77 233 5.2 12.2 0.00 0.00 0.00 42 1008.5
20260504231553 78 137 4.3 9.6 0.00 0.00 0.00 41 1008.5
20260504230053 78 171 7.0 12.2 0.00 0.00 0.00 41 1008.7
20260504224607 79 149 7.0 11.3 0.00 0.00 0.00 41 1008.6
20260504223051 79 167 7.0 18.2 0.00 0.00 0.00 40 1008.5
20260504221551 79 187 6.1 16.5 0.00 0.00 0.00 40 1008.6
20260504220051 80 205 7.8 13.9 0.00 0.00 0.00 37 1008.6
20260504214550 80 168 3.5 16.5 0.00 0.00 0.00 39 1008.6
20260504213112 80 204 7.0 16.5 0.00 0.00 0.00 38 1008.7
20260504211548 81 152 7.0 17.4 0.00 0.00 0.00 37 1008.7
20260504210048 81 154 4.3 17.4 0.00 0.00 0.00 36 1008.8
20260504204548 81 232 8.7 17.4 0.00 0.00 0.00 35 1008.9
20260504203054 81 195 5.2 13.9 0.00 0.00 0.00 39 1009.1
20260504201543 80 230 7.0 18.2 0.00 0.00 0.00 38 1009.4
20260504200044 80 174 10.4 19.1 0.00 0.00 0.00 37 1009.6
20260504194554 81 199 7.0 14.8 0.00 0.00 0.00 36 1009.8
20260504193049 81 158 6.1 19.1 0.00 0.00 0.00 38 1010.2
20260504191536 80 206 9.6 19.1 0.00 0.00 0.00 38 1010.3
20260504190036 81 193 11.3 16.5 0.00 0.00 0.00 36 1010.4
20260504184533 82 200 7.8 15.6 0.00 0.00 0.00 37 1010.5
20260504183031 81 135 7.8 17.4 0.00 0.00 0.00 38 1010.6
20260504181529 80 185 6.1 18.2 0.00 0.00 0.00 40 1010.9
20260504180028 80 230 8.7 19.1 0.00 0.00 0.00 38 1010.9
20260504174526 79 181 6.1 13.0 0.00 0.00 0.00 40 1011.2
20260504173034 80 197 7.8 13.9 0.00 0.00 0.00 40 1011.4
20260504171523 78 299 6.1 12.2 0.00 0.00 0.00 46 1011.6
20260504140104 70 215 3.5 9.6 0.00 0.00 0.00 61 1013.1
20260504081515 62 160 2.6 6.1 0.00 0.00 0.00 64 1012.6
20260504060103 61 205 0.9 6.1 0.00 0.00 0.00 62 1014.0
20260504044601 60 156 0.9 3.5 0.00 0.00 0.00 63 1014.2
20260504043052 58 131 1.7 4.3 0.00 0.00 0.00 66 1014.3
20260504041552 56 160 0.0 2.6 0.00 0.00 0.00 72 1014.3
20260504040052 55 122 0.0 1.7 0.00 0.00 0.00 78 1014.3
20260504034554 55 139 0.0 0.0 0.00 0.00 0.00 79 1014.3
20260504033056 55 151 0.0 0.0 0.00 0.00 0.00 78 1014.6
20260504031551 56 141 0.0 0.0 0.00 0.00 0.00 77 1014.6
20260504030050 56 141 0.0 0.0 0.00 0.00 0.00 76 1014.8
20260504024549 57 141 0.0 0.9 0.00 0.00 0.00 75 1014.8
20260504023049 58 169 0.0 0.0 0.00 0.00 0.00 72 1014.7
20260504021549 59 169 0.0 0.0 0.00 0.00 0.00 70 1014.6
20260504020048 60 169 0.0 0.0 0.00 0.00 0.00 69 1014.5
20260504014549 61 169 0.0 0.0 0.00 0.00 0.00 66 1014.4
20260504013050 62 169 0.0 0.0 0.00 0.00 0.00 64 1014.3
20260504011550 64 169 0.0 0.0 0.00 0.00 0.00 59 1014.3
20260504010054 68 169 0.0 0.0 0.00 0.00 0.00 53 1014.3
20260504004544 70 109 0.0 1.7 0.00 0.00 0.00 45 1014.3
20260504003043 72 158 0.0 0.9 0.00 0.00 0.00 40 1014.4
20260504001601 72 174 0.0 0.9 0.00 0.00 0.00 39 1014.4
20260504000044 73 168 1.7 5.2 0.00 0.00 0.00 37 1014.4